You are here:
  • Home »
  • Tender »
  • Open Tender Enquiry

Open Tender Enquiry

2900-2801 2800-2701 2700-2601 2600-2501 2500-2401 2400-2301 2300-2201 2200-2101
2100-2001 2000-1901 1900-1801 1800-1701 1700-1601 1600-1501 1500-1401 1400-1301
1300-1201 1200-1101 1100-1001 1000-901 900-801 800-701 700-601 600-501
500-401 400-301 300-201 200-101 100-1 1300-1251 1250-1201 1200-1151
1150-1101 1100-1051 1050-1001 1000-951 950-901 900-851 850-801 800-751
750-701 700-651 650-601 600-551 550-501 500-451 450-401 400-351
350-301 300-251 250-201 200-151 150-101 100-51 50-01

Sl.No. Enquiry No. Date Due on Short Description
2701 3/PE171170/7 22/12/2017 22/01/2018 CAP LAMP BELT
2702 3/PE171175/7 21/12/2017 22/01/2018 G.I.PLAIN FLANGE
2703 3/PE171173/7 21/12/2017 22/01/2018 TRANSPARENT RESUSCITATERS
2704 3/PE171176/7 21/12/2017 22/01/2018 GROUNTING GUM
2705 1/PE171203/7 04.01.2018 08.02.2018 Electrode
2706 1/PE171204/7 04.01.2018 08.02.2018 Electrode
2707 1/PE171206/7 04.01.2018 08.02.2018 Flat Copper Crimping
2708 1/PE171207/7 04.01.2018 08.02.2018 Socket Flat Alum.
2709 1/PE171208/7 04.01.2018 08.02.2018 Chain Link Fencing
2710 1/PE171209/7 04.01.2018 08.02.2018 M.S. Bolt & Nut
2711 1/PE171210/7 04.01.2018 08.02.2018 M.S. Nut
2712 1/PE171214/7 04.01.2018 08.02.2018 Grease Pump
2713 1/PE171215/7 04.01.2018 08.02.2018 Tape Micro
2714 1/PE171216/7 04.01.2018 08.02.2018 PVC Insulation Tape
2715 2/PE172298/8 27/12/2017 29/01/2018 SPARES FOR KSB PUMP
2716 2/PE172303/8 27/12/2017 29/01/2018 WORM SHAFT
2717 2/PE172307/8 27/12/2017 29/01/2018 SPARES FOR AIR COMPRESSOR
2718 2/PE171503/1 27/12/2017 29/01/2018 GUN METAL GATE VALVE
2719 2/PE171071/7 27/12/2017 29/01/2018 PULL CHORD SWITCH
2720 2/PE172268/8 27/12/2017 29/01/2018 SPARES FOR SUMP PUMP
2721 2/PE172299/8 27/12/2017 29/01/2018 V BELT
2722 2/PE172304/8 27/12/2017 29/01/2018 SS316L PIPE BENDS
2723 1/PE171277/1 03.01.2018 07.02.2018 Lampe Bulb
2724 1/PE171552/1 03.01.2018 07.02.2018 Register
2725 1/PE171731/1 03.01.2018 07.02.2018 Tonner
2726 1/PE171732/1 03.01.2018 07.02.2018 Bearing
2727 1/PE171738/1 03.01.2018 07.02.2018 Tape Cotton
2728 1/PE171742/1 03.01.2018 07.02.2018 Tape Teflon
2729 1/PE171747/1 03.01.2018 07.02.2018 Steel Wire Rope
2730 1/PE171750/1 03.01.2018 07.02.2018 Lamp
2731 1/PE171752/1 03.01.2018 07.02.2018 Tube Light
2732 1/PE171753/1 03.01.2018 07.02.2018 Relay
2733 1/PE171754/1 03.01.2018 07.02.2018 Plain Washer
2734 1/172509/8 03.01.2018 06.02.2018 USB Operating System
2735 1/172510/8 03.01.2018 06.02.2018 Copper Wire
2736 1/172511/8 03.01.2018 06.02.2018 Noting Folder
2737 1/172512/8 03.01.2018 06.02.2018 Bearing
2738 1/172516/8 03.01.2018 06.02.2018 Deep Groove Ball Bearing
2739 1/172519/8 03.01.2018 06.02.2018 Printing Items
2740 1/172557/8 03.01.2018 06.02.2018 Brass Sheet
2741 1/172562/8 03.01.2018 06.02.2018 Air Conditioner
2742 1/172592/8 03.01.2018 06.02.2018 Repair Kit for Vankos HYD
2743 1/PE180021/1 08.01.2018 12.01.2018 Office Furniture
2744 2/PE 180017/1 05.01.2018 13.02.2018 Ball Mill Feed pipe
2745 2/PE 171067/1 27.12.2017 30.01.2018 Spare Gear Box
2746 2/PE 1710178/1 29.12.2017 02.02.2018 Radon Thoron Monitor
2747 2/PE 180001/1 02.01.2018 19.01.2018 Alum—Alumina Ferric grade-11
2748 1/PE 171070/1 29.12.2017 16.01.2018 Godrej Chair ,table
2749 1/PE171056/1 20.12.2017 30.01.2018 TONER CATRIDGE FOR XEROX WORK CENTRE
2750 1/PE171057/1 20.12.2017 23.01.2018 AC STATIC WATT HOUR METER
2751 1/PE171058/1 20.12.2017 30.01.2018 Resistance to Current converter
2752 1/PE171059/1 20.12.2017 23.01.2018 3 Phase squirrel cage induction motor
2753 1/PE171060/1 20.12.2017 30.01.2018 Air Circuit Breaker
2754 2/PE171559/1 03/01/2018 05/02/2018 STAINLESS STEEL GLOBE VALVE
2755 2/PE180018/1 03/01/2018 18/01/2018 SPARES FOR KDP-250 PUMP
2756 2/PE172327/8 03/01/2018 05/02/2018 NITRILE GLOVES
2757 2/PE172312/8 03/01/2018 05/02/2018 SINTEX TANK COVER
2758 2/PE172301/8 03/01/2018 05/02/2018 SPARES FOR QVC PUMP
2759 2/PE172302/8 03/01/2018 05/02/2018 SPARES FOR QVC PUMP
2760 2/PE172306/8 03/01/2018 05/02/2018 V BELT
2761 2/PE180014/1 03/01/2018 05/02/2018 SPARES FOR WALCHANDNAGAR BOILER
2762 2/PE171990/8 24/10/2017 05/02/2018 SPARES FOR BDK MAKE VALVE
2763 2/PE171991/8 24/10/2017 05/02/2018 SPARES FOR BDK MAKE VALVE
2764 2/PE171556/1 03/01/2018 05/02/2018 BOTTOM FLANGE WITH NOZZLE
2765 1/PE172599/8 09.01.2018 12.02.2018 CRC 2-26
2766 1/PE172603/8 09.01.2018 12.02.2018 Bearing
2767 1/PE172604/8 09.01.2018 12.02.2018 Programmable Controller
2768 1 /PE172605/8 09.01.2018 12.02.2018 Weight Scale
2769 1/PE172610/8 09.01.2018 12.02.2018 Telephone Junction Box
2770 1/PE172611/8 09.01.2018 12.02.2018 Roller Bearing
2771 1/PE172612/8 09.01.2018 12.02.2018 Digital B.P.Instrument
2772 1/PE172613/8 09.01.2018 12.02.2018 Volt Meter
2773 1/PE172620/8 09.01.2018 12.02.2018 Spares for Impact Wrench
2774 1/PE172621/8 09.01.2018 12.02.2018 Capacitor for HPF
2775 3/PE172503/8 08/01/2018 08/02/2018 IGNITION SWITCH
2776 3/PE172499/8 08/01/2018 08/02/2018 LIGHT SWITCH
2777 3/PE171159/7 04/01/2018 06/02/2018 SPARES FOR BOOMERS
2778 3/PE171145/7 04/01/2018 06/02/2018 SPARES FOR ST 710
2779 3/PE171154/7 04/01/2018 06/02/2018 AIR FILTER ELEMENT
2780 3/PE171158/7 04/01/2018 06/02/2018 TOGGLE SWITCH
2781 3/PE171157/7 04/01/2018 06/02/2018 SAFETY BELT
2782 3/PE172414/8 05/01/2018 06/02/2018 SPARES FOR NORMET MULTIMEC
2783 3/PE172418/8 05/01/2018 06/02/2018 PILOT SPRAY GUN WITH CAP
2784 3/PE180087/8 05/01/2018 06/02/2018 CUP SEAL
2785 3/PE180084/8 05/01/2018 06/02/2018 TYRE COUPLING
2786 3/PE180007/7 05/01/2018 06/02/2018 DOWEL
2787 3/PE172417/8 05/01/2018 06/02/2018 CONNECTOR
2788 3/PE180035/8 03/01/2018 05/02/2018 SPARES FOR DIAMEC 232
2789 3/PE172648/8 03/01/2018 05/02/2018 WIRE ROPE
2790 3/PE172583/8 03/01/2018 05/02/2018 SWITCH
2791 3/PE180001/7 03/01/2018 05/02/2018 CIRCUIT BREAKER
2792 3/PE180002/7 03/01/2018 05/02/2018 HEAD LIGHT / DRILLING LIGHT
2793 3/PE171150/7 03/01/2018 05/02/2018 SPARES FOR BOOMER 281
2794 3/PE172459/8 02/01/2018 05/02/2018 FAST DRYING INSULATING VARNISH
2795 3/PE172467/8 02/01/2018 05/02/2018 PRESSURE GAUGE
2796 3/PE171193/7 02/01/2018 05/02/2018 LIMIT SWITCH
2797 3/PE172471/8 02/01/2018 05/02/2018 PRESSURE GAUGE
2798 3/PE172585/8 02/01/2018 05/02/2018 PENDANT
2799 3/PE180004/7 02/01/2018 05/02/2018 FILTER
2800 3/PE171188/7 02/01/2018 05/02/2018 PRESSURE SEQUENCE VALVE